GW7141 Weather Reports


time (UTC)temp
C
wind
direction
speed
KPH
gust
KPH
rain 1hr
cm
rain 24hr
cm
rain mn
cm
humidity
%
barometer
mb
20260503010027 3 129 12.9 20.9 0.00 0.00 0.00 74 1007.0
20260503004503 4 136 22.5 24.1 0.00 0.00 0.00 71 1006.9
20260503003003 5 110 14.5 27.4 0.00 0.00 0.00 69 1007.1
20260503001506 5 119 27.4 32.2 0.00 0.00 0.00 63 1007.0
20260503000004 16 287 9.7 17.7 0.00 0.00 0.00 35 1007.0
20260502234504 16 287 17.7 25.7 0.00 0.00 0.00 36 1007.1
20260502233003 16 287 20.9 24.1 0.00 0.00 0.00 36 1006.9
20260502231503 16 282 19.3 30.6 0.00 0.00 0.00 34 1007.5
20260502230009 17 287 24.1 37.0 0.00 0.00 0.00 34 1007.6
20260502221504 17 330 27.4 33.8 0.00 0.00 0.00 32 1008.0
20260502220005 17 288 24.1 37.0 0.00 0.00 0.00 31 1007.3
20260502214505 12 348 24.1 33.8 0.00 0.00 0.00 43 1008.3
20260502210005 10 139 17.7 19.3 0.00 0.00 0.00 42 1009.1
20260502204504 9 141 11.3 16.1 0.00 0.00 0.00 44 1009.4
20260502203006 10 155 8.0 14.5 0.00 0.00 0.00 44 1009.8
20260502201509 10 147 14.5 16.1 0.00 0.00 0.00 43 1009.9
20260502194505 8 141 9.7 11.3 0.00 0.00 0.00 46 1010.6
20260502193008 8 141 8.0 11.3 0.00 0.00 0.00 47 1010.9
20260502191508 8 146 11.3 12.9 0.00 0.00 0.00 49 1011.1
20260502184523 7 147 6.4 9.7 0.00 0.00 0.00 52 1011.9
20260502183019 7 148 8.0 11.3 0.00 0.00 0.00 54 1012.2
20260502181508 6 155 6.4 9.7 0.00 0.00 0.00 58 1012.5
20260502163016 6 178 8.0 9.7 0.00 0.00 0.00 58 1014.3
20260502161513 5 183 8.0 11.3 0.00 0.00 0.00 59 1014.5
20260502151515 3 231 8.0 9.7 0.00 0.00 0.00 74 1015.5
20260502123011 3 231 0.0 3.2 0.00 0.00 0.00 72 1016.7
20260502121520 3 231 3.2 4.8 0.00 0.00 0.00 73 1016.6
20260502114520 2 231 4.8 4.8 0.00 0.00 0.00 71 1016.7
20260502113010 1 229 3.2 4.8 0.00 0.00 0.00 72 1012.5
20260502111519 1 226 3.2 4.8 0.00 0.00 0.00 78 1016.7
20260502110021 -17 0.0 0.0 0.00 0.00 0.00 1015.8
20260502104520 -17 0.0 0.0 0.00 0.00 0.00 1016.5
20260502103028 -17 0.0 0.0 0.00 0.00 0.00 1016.7
20260502101534 -17 0.0 0.0 0.00 0.00 0.00 1016.7
20260502091522 -17 0.0 0.0 0.00 0.00 0.00 1016.8
20260502071509 2 226 0.0 3.2 0.00 0.00 0.00 75 1017.3
20260502070012 2 226 0.0 3.2 0.00 0.00 0.00 75 1017.4
20260502061505 2 226 1.6 1.6 0.00 0.00 0.00 69 1017.5
20260502053018 3 226 0.0 3.2 0.00 0.00 0.00 61 1017.5
20260502051528 3 226 1.6 6.4 0.00 0.00 0.00 60 1017.5
20260502050008 3 224 6.4 6.4 0.00 0.00 0.00 61 1017.6
20260502044512 3 224 3.2 4.8 0.00 0.00 0.00 67 1017.7
20260502041524 3 223 1.6 4.8 0.00 0.00 0.00 64 1017.7
20260502040022 3 221 6.4 8.0 0.00 0.00 0.00 67 1017.7
20260502030022 3 219 0.0 4.8 0.00 0.00 0.00 64 1017.8
20260502024525 3 210 0.0 3.2 0.00 0.00 0.00 62 1017.7
20260502023026 4 210 0.0 3.2 0.00 0.00 0.00 58 1017.5
20260502021518 4 210 0.0 4.8 0.00 0.00 0.00 59 1017.5
20260502014527 5 153 9.7 14.5 0.00 0.00 0.00 53 1017.3
20260502013026 4 143 11.3 14.5 0.00 0.00 0.00 60 1017.3
20260502011515 4 141 11.3 12.9 0.00 0.00 0.00 57 1017.1